Time,TemperatureF,DewpointF,PressureIn,WindDirection,WindDirectionDegrees,WindSpeedMPH,WindSpeedGustMPH,Humidity,HourlyPrecipIn,Conditions,Clouds,dailyrainin,SoftwareType,DateUTC
2013-05-27 00:12:00,58.0,57.0,-100.00,SSE,150,17.0,33.0,97,0.00,,,-99.99,,2013-05-27 05:12:00,
2013-05-27 00:32:00,58.0,58.0,-100.00,SSE,160,12.0,26.0,97,0.00,,,-99.99,,2013-05-27 05:32:00,
2013-05-27 00:42:00,58.0,58.0,-100.00,SSE,160,12.0,26.0,97,0.00,,,-99.99,,2013-05-27 05:42:00,
2013-05-27 00:52:00,58.0,58.0,-100.00,SSE,155,14.0,27.0,99,0.00,,,-99.99,,2013-05-27 05:52:00,
2013-05-27 01:01:00,58.0,58.0,-100.00,SSE,155,14.0,27.0,99,0.00,,,-99.99,,2013-05-27 06:01:00,
2013-05-27 01:11:00,58.0,58.0,-100.00,SSE,150,14.0,26.0,99,0.08,,,-99.99,,2013-05-27 06:11:00,
2013-05-27 01:21:00,59.0,58.0,-100.00,SSE,150,19.0,29.0,98,0.00,,,-99.99,,2013-05-27 06:21:00,
2013-05-27 01:32:00,59.0,58.0,-100.00,SE,130,6.0,28.0,97,0.00,,,-99.99,,2013-05-27 06:32:00,
2013-05-27 01:42:00,59.0,58.0,-100.00,SE,130,6.0,28.0,97,0.00,,,-99.99,,2013-05-27 06:42:00,
2013-05-27 01:52:00,59.0,58.0,-100.00,SSE,160,12.0,24.0,97,0.00,,,-99.99,,2013-05-27 06:52:00,
2013-05-27 02:02:00,58.0,58.0,-100.00,SSE,155,6.0,19.0,98,0.00,,,-99.99,,2013-05-27 07:02:00,
2013-05-27 02:11:00,59.0,58.0,-100.00,SSW,205,6.0,12.0,98,0.01,,,-99.99,,2013-05-27 07:11:00,
2013-05-27 02:21:00,59.0,59.0,-100.00,NW,305,13.0,29.0,99,1.57,,,-99.99,,2013-05-27 07:21:00,
2013-05-27 02:32:00,58.0,58.0,-100.00,SSW,205,6.0,12.0,99,0.62,,,-99.99,,2013-05-27 07:32:00,
2013-05-27 02:52:00,58.0,58.0,-100.00,West,260,8.0,11.0,99,0.11,,,-99.99,,2013-05-27 07:52:00,
2013-05-27 03:02:00,58.0,58.0,-100.00,SW,225,6.0,9.0,99,0.07,,,-99.99,,2013-05-27 08:02:00,
2013-05-27 03:11:00,58.0,58.0,-100.00,ESE,105,1.0,9.0,99,0.28,,,-99.99,,2013-05-27 08:11:00,
2013-05-27 03:32:00,58.0,58.0,-100.00,North,5,7.0,7.0,99,0.43,,,-99.99,,2013-05-27 08:32:00,
2013-05-27 03:42:00,58.0,58.0,-100.00,East,100,3.0,7.0,99,0.21,,,-99.99,,2013-05-27 08:42:00,
2013-05-27 03:52:00,58.0,58.0,-100.00,ESE,105,6.0,9.0,99,0.20,,,-99.99,,2013-05-27 08:52:00,
2013-05-27 04:02:00,58.0,58.0,-100.00,ESE,110,5.0,11.0,99,0.11,,,-99.99,,2013-05-27 09:02:00,
2013-05-27 04:11:00,58.0,58.0,-100.00,ESE,110,8.0,12.0,99,0.17,,,-99.99,,2013-05-27 09:11:00,
2013-05-27 04:21:00,58.0,58.0,-100.00,East,95,12.0,18.0,99,0.08,,,-99.99,,2013-05-27 09:21:00,
2013-05-27 04:33:00,58.0,58.0,-100.00,East,90,13.0,28.0,99,0.07,,,-99.99,,2013-05-27 09:33:00,
2013-05-27 04:42:00,58.0,58.0,-100.00,East,80,6.0,17.0,99,0.06,,,-99.99,,2013-05-27 09:42:00,
2013-05-27 04:52:00,58.0,58.0,-100.00,ENE,75,6.0,14.0,99,0.00,,,-99.99,,2013-05-27 09:52:00,
2013-05-27 05:02:00,58.0,58.0,-100.00,NNE,30,4.0,9.0,99,0.00,,,-99.99,,2013-05-27 10:02:00,
2013-05-27 05:22:00,58.0,58.0,-100.00,North,-999,-999.0,-999.0,99,0.00,,,-99.99,,2013-05-27 10:22:00,
2013-05-27 05:32:00,58.0,58.0,-100.00,East,85,9.0,18.0,99,0.00,,,-99.99,,2013-05-27 10:32:00,
2013-05-27 05:52:00,57.0,57.0,-100.00,ENE,65,6.0,9.0,99,0.00,,,-99.99,,2013-05-27 10:52:00,
2013-05-27 06:02:00,57.0,57.0,-100.00,ENE,60,7.0,13.0,99,0.00,,,-99.99,,2013-05-27 11:02:00,
2013-05-27 06:11:00,57.0,57.0,-100.00,East,85,9.0,13.0,99,0.00,,,-99.99,,2013-05-27 11:11:00,
2013-05-27 06:22:00,57.0,57.0,-100.00,East,85,9.0,13.0,99,0.00,,,-99.99,,2013-05-27 11:22:00,
2013-05-27 06:32:00,57.0,57.0,-100.00,ESE,110,6.0,11.0,99,0.00,,,-99.99,,2013-05-27 11:32:00,
2013-05-27 06:42:00,57.0,57.0,-100.00,ESE,120,4.0,9.0,99,0.00,,,-99.99,,2013-05-27 11:42:00,
2013-05-27 06:52:00,57.0,57.0,-100.00,East,85,6.0,7.0,99,0.00,,,-99.99,,2013-05-27 11:52:00,
2013-05-27 07:01:00,57.0,57.0,-100.00,SE,145,4.0,6.0,99,0.00,,,-99.99,,2013-05-27 12:01:00,
2013-05-27 07:11:00,57.0,57.0,-100.00,SE,145,4.0,6.0,99,0.00,,,-99.99,,2013-05-27 12:11:00,
2013-05-27 07:21:00,57.0,57.0,-100.00,SE,130,8.0,13.0,99,0.00,,,-99.99,,2013-05-27 12:21:00,
2013-05-27 07:32:00,57.0,57.0,-100.00,SSE,155,7.0,15.0,99,0.00,,,-99.99,,2013-05-27 12:32:00,
2013-05-27 07:52:00,58.0,58.0,-100.00,SSE,150,6.0,11.0,99,0.00,,,-99.99,,2013-05-27 12:52:00,
2013-05-27 08:01:00,58.0,58.0,-100.00,SE,140,6.0,11.0,99,0.00,,,-99.99,,2013-05-27 13:01:00,
2013-05-27 08:11:00,58.0,58.0,-100.00,SW,235,2.0,7.0,99,0.00,,,-99.99,,2013-05-27 13:11:00,
2013-05-27 08:21:00,59.0,59.0,-100.00,SE,145,2.0,4.0,99,0.00,,,-99.99,,2013-05-27 13:21:00,
2013-05-27 08:32:00,59.0,59.0,-100.00,SE,135,2.0,6.0,99,0.00,,,-99.99,,2013-05-27 13:32:00,
2013-05-27 08:41:00,59.0,59.0,-100.00,WSW,250,2.0,4.0,99,0.00,,,-99.99,,2013-05-27 13:41:00,
2013-05-27 08:52:00,59.0,59.0,-100.00,SSW,195,2.0,4.0,99,0.00,,,-99.99,,2013-05-27 13:52:00,
2013-05-27 09:01:00,59.0,59.0,-100.00,SSW,195,2.0,4.0,99,0.00,,,-99.99,,2013-05-27 14:01:00,
2013-05-27 09:11:00,60.0,60.0,-100.00,SW,220,1.0,6.0,99,0.00,,,-99.99,,2013-05-27 14:11:00,
2013-05-27 09:21:00,60.0,60.0,-100.00,SE,125,1.0,6.0,99,0.00,,,-99.99,,2013-05-27 14:21:00,
2013-05-27 09:32:00,60.0,60.0,-100.00,East,95,1.0,4.0,99,0.00,,,-99.99,,2013-05-27 14:32:00,
2013-05-27 09:42:00,60.0,60.0,-100.00,East,95,1.0,4.0,99,0.00,,,-99.99,,2013-05-27 14:42:00,
2013-05-27 09:51:00,60.0,59.0,-100.00,ESE,110,2.0,7.0,98,0.00,,,-99.99,,2013-05-27 14:51:00,
2013-05-27 10:01:00,60.0,59.0,-100.00,ESE,110,2.0,7.0,98,0.00,,,-99.99,,2013-05-27 15:01:00,
2013-05-27 10:11:00,61.0,60.0,-100.00,East,90,7.0,12.0,96,0.00,,,-99.99,,2013-05-27 15:11:00,
2013-05-27 10:21:00,61.0,60.0,-100.00,East,95,7.0,12.0,96,0.00,,,-99.99,,2013-05-27 15:21:00,
2013-05-27 10:33:00,62.0,60.0,-100.00,ESE,110,7.0,15.0,94,0.00,,,-99.99,,2013-05-27 15:33:00,
2013-05-27 10:43:00,61.0,60.0,-100.00,ESE,110,9.0,15.0,94,0.00,,,-99.99,,2013-05-27 15:43:00,
2013-05-27 10:53:00,63.0,60.0,-100.00,ESE,110,13.0,22.0,90,0.00,,,-99.99,,2013-05-27 15:53:00,
2013-05-27 11:02:00,63.0,60.0,-100.00,East,95,15.0,21.0,88,0.00,,,-99.99,,2013-05-27 16:02:00,
2013-05-27 11:12:00,64.0,60.0,-100.00,East,90,15.0,22.0,88,0.00,,,-99.99,,2013-05-27 16:12:00,
2013-05-27 11:23:00,64.0,60.0,-100.00,East,90,14.0,23.0,88,0.00,,,-99.99,,2013-05-27 16:23:00,
2013-05-27 11:33:00,64.0,61.0,-100.00,East,90,17.0,22.0,88,0.00,,,-99.99,,2013-05-27 16:33:00,
2013-05-27 11:42:00,65.0,61.0,-100.00,East,85,13.0,21.0,86,0.00,,,-99.99,,2013-05-27 16:42:00,
2013-05-27 11:52:00,65.0,60.0,-100.00,East,95,10.0,16.0,83,0.00,,,-99.99,,2013-05-27 16:52:00,
2013-05-27 12:02:00,65.0,60.0,-100.00,East,100,9.0,19.0,83,0.00,,,-99.99,,2013-05-27 17:02:00,
2013-05-27 12:11:00,65.0,60.0,-100.00,SE,145,7.0,16.0,83,0.00,,,-99.99,,2013-05-27 17:11:00,
2013-05-27 12:22:00,65.0,60.0,-100.00,SE,135,9.0,14.0,84,0.00,,,-99.99,,2013-05-27 17:22:00,
2013-05-27 12:32:00,65.0,60.0,-100.00,SE,140,7.0,15.0,84,0.00,,,-99.99,,2013-05-27 17:32:00,
2013-05-27 12:43:00,65.0,60.0,-100.00,SE,135,7.0,11.0,83,0.00,,,-99.99,,2013-05-27 17:43:00,
2013-05-27 12:52:00,66.0,61.0,-100.00,SE,145,6.0,9.0,81,0.00,,,-99.99,,2013-05-27 17:52:00,
2013-05-27 13:02:00,66.0,60.0,-100.00,SSE,155,6.0,9.0,79,0.00,,,-99.99,,2013-05-27 18:02:00,
2013-05-27 13:11:00,67.0,61.0,-100.00,SW,235,8.0,10.0,82,0.00,,,-99.99,,2013-05-27 18:11:00,
2013-05-27 13:22:00,67.0,61.0,-100.00,SW,235,8.0,10.0,82,0.00,,,-99.99,,2013-05-27 18:22:00,
2013-05-27 13:32:00,68.0,61.0,-100.00,WSW,240,6.0,11.0,79,0.00,,,-99.99,,2013-05-27 18:32:00,
2013-05-27 13:42:00,67.0,61.0,-100.00,West,265,7.0,11.0,79,0.00,,,-99.99,,2013-05-27 18:42:00,
2013-05-27 13:52:00,67.0,60.0,-100.00,West,265,4.0,8.0,80,0.00,,,-99.99,,2013-05-27 18:52:00,
2013-05-27 14:11:00,67.0,60.0,-100.00,WNW,285,3.0,4.0,76,0.00,,,-99.99,,2013-05-27 19:11:00,
2013-05-27 14:21:00,67.0,60.0,-100.00,NW,315,3.0,4.0,76,0.00,,,-99.99,,2013-05-27 19:21:00,
2013-05-27 14:32:00,70.0,60.0,-100.00,NW,325,2.0,4.0,71,0.00,,,-99.99,,2013-05-27 19:32:00,
2013-05-27 14:42:00,70.0,60.0,-100.00,North,-999,-999.0,-999.0,70,0.00,,,-99.99,,2013-05-27 19:42:00,
2013-05-27 14:52:00,71.0,60.0,-100.00,NNW,340,1.0,6.0,67,0.00,,,-99.99,,2013-05-27 19:52:00,
2013-05-27 15:01:00,71.0,61.0,-100.00,North,10,6.0,9.0,69,0.00,,,-99.99,,2013-05-27 20:01:00,
2013-05-27 15:11:00,71.0,61.0,-100.00,NW,325,4.0,7.0,70,0.00,,,-99.99,,2013-05-27 20:11:00,
2013-05-27 15:22:00,71.0,61.0,-100.00,NW,325,4.0,7.0,70,0.00,,,-99.99,,2013-05-27 20:22:00,
2013-05-27 15:32:00,72.0,61.0,-100.00,NE,35,4.0,9.0,68,0.00,,,-99.99,,2013-05-27 20:32:00,
2013-05-27 15:42:00,72.0,61.0,-100.00,NE,35,4.0,9.0,68,0.00,,,-99.99,,2013-05-27 20:42:00,
2013-05-27 15:52:00,72.0,60.0,-100.00,NNE,25,7.0,9.0,67,0.00,,,-99.99,,2013-05-27 20:52:00,
2013-05-27 16:01:00,72.0,60.0,-100.00,NNE,25,7.0,9.0,67,0.00,,,-99.99,,2013-05-27 21:01:00,
2013-05-27 16:12:00,73.0,61.0,-100.00,North,5,6.0,9.0,67,0.00,,,-99.99,,2013-05-27 21:12:00,
2013-05-27 16:21:00,73.0,60.0,-100.00,North,10,6.0,9.0,64,0.00,,,-99.99,,2013-05-27 21:21:00,
2013-05-27 16:33:00,73.0,62.0,-100.00,NE,40,7.0,11.0,68,0.00,,,-99.99,,2013-05-27 21:33:00,
2013-05-27 16:43:00,73.0,62.0,-100.00,NE,40,7.0,11.0,68,0.00,,,-99.99,,2013-05-27 21:43:00,
2013-05-27 16:53:00,73.0,63.0,-100.00,NNE,20,7.0,11.0,69,0.00,,,-99.99,,2013-05-27 21:53:00,
2013-05-27 17:02:00,73.0,63.0,-100.00,ENE,70,7.0,11.0,70,0.00,,,-99.99,,2013-05-27 22:02:00,
2013-05-27 17:12:00,73.0,64.0,-100.00,ENE,75,6.0,13.0,73,0.00,,,-99.99,,2013-05-27 22:12:00,
2013-05-27 17:22:00,72.0,63.0,-100.00,East,80,11.0,14.0,74,0.00,,,-99.99,,2013-05-27 22:22:00,
2013-05-27 17:33:00,71.0,63.0,-100.00,East,90,11.0,15.0,74,0.00,,,-99.99,,2013-05-27 22:33:00,
2013-05-27 17:42:00,71.0,63.0,-100.00,East,80,8.0,15.0,74,0.00,,,-99.99,,2013-05-27 22:42:00,
2013-05-27 17:52:00,72.0,62.0,-100.00,East,90,9.0,17.0,72,0.00,,,-99.99,,2013-05-27 22:52:00,
2013-05-27 18:12:00,71.0,62.0,-100.00,East,90,5.0,14.0,73,0.00,,,-99.99,,2013-05-27 23:12:00,
2013-05-27 18:22:00,70.0,61.0,-100.00,East,90,7.0,14.0,73,0.00,,,-99.99,,2013-05-27 23:22:00,
2013-05-27 18:32:00,69.0,61.0,-100.00,East,90,11.0,16.0,77,0.00,,,-99.99,,2013-05-27 23:32:00,
2013-05-27 18:42:00,68.0,62.0,-100.00,East,80,9.0,14.0,80,0.00,,,-99.99,,2013-05-27 23:42:00,
2013-05-27 18:52:00,67.0,61.0,-100.00,East,80,9.0,16.0,80,0.00,,,-99.99,,2013-05-27 23:52:00,
2013-05-27 19:01:00,67.0,61.0,-100.00,ESE,110,6.0,17.0,81,0.00,,,-99.99,,2013-05-28 00:01:00,
2013-05-27 19:11:00,66.0,60.0,-100.00,East,95,10.0,15.0,82,0.00,,,-99.99,,2013-05-28 00:11:00,
2013-05-27 19:21:00,66.0,60.0,-100.00,East,95,10.0,15.0,82,0.00,,,-99.99,,2013-05-28 00:21:00,
2013-05-27 19:31:00,65.0,60.0,-100.00,East,90,7.0,15.0,84,0.00,,,-99.99,,2013-05-28 00:31:00,
2013-05-27 19:41:00,64.0,60.0,-100.00,East,90,10.0,14.0,84,0.00,,,-99.99,,2013-05-28 00:41:00,
2013-05-27 19:52:00,64.0,60.0,-100.00,East,85,10.0,13.0,85,0.00,,,-99.99,,2013-05-28 00:52:00,
2013-05-27 20:11:00,64.0,60.0,-100.00,East,90,9.0,14.0,86,0.00,,,-99.99,,2013-05-28 01:11:00,
2013-05-27 20:21:00,64.0,60.0,-100.00,East,90,10.0,14.0,86,0.00,,,-99.99,,2013-05-28 01:21:00,
2013-05-27 20:31:00,63.0,60.0,-100.00,ESE,105,9.0,13.0,88,0.00,,,-99.99,,2013-05-28 01:31:00,
2013-05-27 20:41:00,63.0,59.0,-100.00,East,90,11.0,15.0,89,0.00,,,-99.99,,2013-05-28 01:41:00,
2013-05-27 20:52:00,62.0,59.0,-100.00,ESE,110,9.0,14.0,91,0.00,,,-99.99,,2013-05-28 01:52:00,
2013-05-27 21:02:00,62.0,59.0,-100.00,East,95,7.0,14.0,91,0.00,,,-99.99,,2013-05-28 02:02:00,
2013-05-27 21:11:00,61.0,59.0,-100.00,ESE,105,8.0,17.0,92,0.00,,,-99.99,,2013-05-28 02:11:00,
2013-05-27 21:21:00,61.0,59.0,-100.00,ESE,115,12.0,17.0,92,0.00,,,-99.99,,2013-05-28 02:21:00,
2013-05-27 21:32:00,60.0,58.0,-100.00,ESE,110,7.0,11.0,93,0.00,,,-99.99,,2013-05-28 02:32:00,
2013-05-27 21:42:00,60.0,58.0,-100.00,ESE,110,7.0,11.0,93,0.00,,,-99.99,,2013-05-28 02:42:00,
2013-05-27 21:51:00,60.0,59.0,-100.00,East,90,6.0,9.0,94,0.00,,,-99.99,,2013-05-28 02:51:00,
2013-05-27 22:01:00,60.0,59.0,-100.00,East,90,6.0,9.0,94,0.00,,,-99.99,,2013-05-28 03:01:00,
2013-05-27 22:11:00,60.0,59.0,-100.00,ESE,120,4.0,10.0,96,0.00,,,-99.99,,2013-05-28 03:11:00,
2013-05-27 22:21:00,60.0,59.0,-100.00,SE,125,2.0,6.0,97,0.00,,,-99.99,,2013-05-28 03:21:00,
2013-05-27 22:33:00,60.0,60.0,-100.00,East,100,4.0,7.0,97,0.00,,,-99.99,,2013-05-28 03:33:00,
2013-05-27 22:43:00,60.0,60.0,-100.00,ESE,105,6.0,10.0,97,0.00,,,-99.99,,2013-05-28 03:43:00,
2013-05-27 22:53:00,60.0,60.0,-100.00,ESE,105,6.0,9.0,97,0.00,,,-99.99,,2013-05-28 03:53:00,
2013-05-27 23:02:00,60.0,60.0,-100.00,ESE,105,6.0,9.0,97,0.00,,,-99.99,,2013-05-28 04:02:00,
2013-05-27 23:12:00,60.0,60.0,-100.00,ESE,110,5.0,10.0,99,0.00,,,-99.99,,2013-05-28 04:12:00,
2013-05-27 23:22:00,60.0,60.0,-100.00,ESE,110,5.0,10.0,99,0.00,,,-99.99,,2013-05-28 04:22:00,
2013-05-27 23:33:00,60.0,60.0,-100.00,ESE,115,4.0,8.0,99,0.00,,,-99.99,,2013-05-28 04:33:00,
2013-05-27 23:42:00,60.0,60.0,-100.00,SE,125,4.0,9.0,100,0.00,,,-99.99,,2013-05-28 04:42:00,
2013-05-27 23:52:00,60.0,60.0,-100.00,ESE,120,6.0,10.0,99,0.00,,,-99.99,,2013-05-28 04:52:00,